Surface/Precipitation History
12/17/2014 18:32  to  12/18/2014 18:32
Change End Date:
Date/Time
(MST)
Sf
Temp Chem Water Layer Surface Precipitation
Sf Sub Frz Factor Pct Depth IcePct Cond Salin Type Intens Accum Rate
12/18/2014 18:31 Wet 32.4F 34F 32F 95 0% 0.10 in 0% 0 mhos 44 Yes - - -
12/18/2014 18:24 Wet 32.4F 34F 32F 95 0% 0.10 in 0% 0 mhos 46 Yes - - -
12/18/2014 18:16 Wet 32.4F 34F 32F 95 0% 0.20 in 0% 0 mhos 48 Yes - - -
12/18/2014 18:14 Wet 32.4F 34F 32F 95 0% 0.20 in 0% 0 mhos 48 Yes - - -
12/18/2014 18:04 Wet 32.4F 34F 32F 95 0% 0.10 in 0% 0 mhos 51 Yes - - -
12/18/2014 18:00 Wet 32.5F 34F 32F 95 0% 0.10 in 0% 0 mhos 52 Yes - - -
12/18/2014 17:54 Wet 32.5F 34F 32F 95 0% 0.10 in 0% 0 mhos 52 Yes - - -
12/18/2014 17:46 Wet 32.5F 34F 32F 95 0% 0.20 in 0% 0 mhos 52 Yes - - -
12/18/2014 17:44 Wet 32.5F 34F 32F 95 0% 0.10 in 0% 0 mhos 53 Yes - - -
12/18/2014 17:34 Wet 32.5F 34F 32F 95 0% 0.10 in 0% 1 mhos 53 Yes - - -
12/18/2014 17:30 Wet 32.7F 34F 32F 95 0% 0.20 in 0% 1 mhos 54 Yes - - -
12/18/2014 17:24 Wet 32.5F 34F 32F 95 0% 0.10 in 0% 1 mhos 54 Yes - - -
12/18/2014 17:16 Wet 32.5F 34F 32F 95 0% 0.20 in 0% 1 mhos 54 Yes - - -
12/18/2014 17:14 Wet 32.5F 34F 32F 95 0% 0.20 in 0% 1 mhos 55 Yes - - -
12/18/2014 17:04 Wet 32.9F 34F 32F 95 0% 0.20 in 0% 1 mhos 55 Yes - - -
Date/Time
(MST)
Sf
Temp Chem Water Layer Surface Precipitation
Sf Sub Frz Factor Pct Depth IcePct Cond Salin Type Intens Accum Rate
12/18/2014 17:00 Wet 32.9F 34F 32F 95 0% 0.20 in 0% 1 mhos 55 Yes - - -
12/18/2014 16:54 Wet 32.9F 34F 32F 95 0% 0.10 in 0% 1 mhos 55 Yes - - -
12/18/2014 16:46 Wet 32.9F 34F 32F 95 0% 0.20 in 0% 1 mhos 55 None None - -
12/18/2014 16:44 Wet 32.9F 34F 32F 95 0% 0.20 in 0% 1 mhos 56 Yes - - -
12/18/2014 16:34 Wet 33.1F 33F 32F 95 0% 0.30 in 0% 1 mhos 56 Yes - - -
12/18/2014 16:30 Wet 33.1F 33F 32F 95 0% 0.20 in 0% 1 mhos 56 Yes - - -
12/18/2014 16:24 Wet 33.4F 33F 32F 95 0% 0.40 in 0% 1 mhos 54 Yes - - -
12/18/2014 16:16 Wet 33.6F 33F 32F 95 0% 0.50 in 0% 1 mhos 53 Yes - - -
12/18/2014 16:14 Wet 33.8F 33F 32F 95 0% 0.70 in 0% 1 mhos 53 Yes - - -
12/18/2014 16:04 Wet 34.0F 33F 32F 95 0% 0.30 in 0% 1 mhos 54 None None - -
12/18/2014 16:00 Wet 34.0F 33F 32F 95 0% 1.50 in 0% 1 mhos 54 None None - -
12/18/2014 15:54 Wet 34.2F 33F 32F 95 0% 5.20 in 0% 1 mhos 55 None None - -
12/18/2014 15:46 Wet 34.3F 33F 32F 95 0% 0.30 in 0% 1 mhos 55 None None - -
12/18/2014 15:44 Wet 34.3F 33F 32F 95 0% 0.40 in 0% 1 mhos 56 None None - -
12/18/2014 15:34 Wet 34.5F 33F 32F 95 0% 4.60 in 0% 1 mhos 57 Yes - - -
Date/Time
(MST)
Sf
Temp Chem Water Layer Surface Precipitation
Sf Sub Frz Factor Pct Depth IcePct Cond Salin Type Intens Accum Rate
12/18/2014 15:30 Wet 34.7F 33F 32F 95 0% 2.80 in 0% 1 mhos 57 None None - -
12/18/2014 15:23 Wet 34.9F 33F 32F 95 0% 3.20 in 0% 1 mhos 57 Yes - - -
12/18/2014 15:16 Wet 34.9F 33F 32F 95 0% 0.30 in 0% 1 mhos 58 Yes - - -
12/18/2014 15:13 Wet 34.9F 33F 32F 95 0% 0.30 in 0% 1 mhos 58 None None - -
12/18/2014 15:03 Wet 35.1F 33F 32F 95 0% - 0% 1 mhos 58 None None - -
12/18/2014 15:01 Wet 35.2F 33F 32F 95 0% 2.30 in 0% 1 mhos 59 None None - -
12/18/2014 14:53 Wet 35.6F 33F 32F 95 0% 2.60 in 0% 1 mhos 59 None None - -
12/18/2014 14:46 Wet 35.8F 33F 32F 95 0% 0.60 in 0% 1 mhos 61 None None - -
12/18/2014 14:43 Wet 35.8F 33F 32F 95 0% 0.70 in 0% 1 mhos 61 None None - -
12/18/2014 14:33 Wet 36.1F 33F 32F 95 0% 0.90 in 0% 1 mhos 62 Yes - - -
12/18/2014 14:30 Wet 36.1F 33F 32F 95 0% 0.30 in 0% 1 mhos 62 Yes - - -
12/18/2014 14:23 Wet 36.1F 33F 32F 95 0% 0.20 in 0% 1 mhos 63 None None - -
12/18/2014 14:16 Wet 36.3F 33F 32F 95 0% 0.60 in 0% 1 mhos 64 None None - -
12/18/2014 14:13 Wet 36.1F 33F 32F 95 0% 0.40 in 0% 1 mhos 64 None None - -
12/18/2014 14:03 Wet 36.0F 33F 32F 95 0% 0.30 in 0% 1 mhos 65 Yes - - -
Date/Time
(MST)
Sf
Temp Chem Water Layer Surface Precipitation
Sf Sub Frz Factor Pct Depth IcePct Cond Salin Type Intens Accum Rate
12/18/2014 14:01 Wet 35.8F 33F 32F 95 0% 0.20 in 0% 1 mhos 65 None None - -
12/18/2014 13:53 Wet 35.6F 33F 32F 95 0% 0.40 in 0% 1 mhos 67 None None - -
12/18/2014 13:47 Wet 35.4F 33F 32F 95 0% 0.20 in 0% 1 mhos 68 None None - -
12/18/2014 13:43 Wet 35.4F 33F 32F 95 0% 0.20 in 0% 1 mhos 68 None None - -
12/18/2014 13:33 Wet 34.9F 33F 32F 95 0% 0.20 in 0% 1 mhos 70 Yes - - -
12/18/2014 13:31 Wet 34.9F 33F 32F 95 0% 0.20 in 0% 1 mhos 70 None None - -
12/18/2014 13:23 Wet 34.9F 33F 32F 95 0% 0.20 in 0% 1 mhos 71 None None - -
12/18/2014 13:17 Wet 35.8F 33F 32F 95 0% 0.10 in 0% 1 mhos 71 Yes - - -
12/18/2014 13:13 Wet 36.3F 33F 32F 95 0% 0.40 in 0% 1 mhos 73 None None - -
12/18/2014 13:03 Wet 36.3F 33F 32F 95 0% 0.20 in 0% 1 mhos 75 Yes - - -
12/18/2014 13:00 Wet 36.3F 33F 32F 95 0% 0.20 in 0% 1 mhos 75 Yes - - -
12/18/2014 12:53 Wet 36.1F 33F 32F 95 0% 0.10 in 0% 1 mhos 76 Yes - - -
12/18/2014 12:46 Wet 35.8F 33F 32F 95 0% 0.20 in 0% 1 mhos 76 Yes - - -
12/18/2014 12:43 Wet 35.6F 33F 32F 95 0% 0.20 in 0% 1 mhos 77 Yes - - -
12/18/2014 12:33 Wet 35.6F 33F 32F 95 0% 0.20 in 0% 1 mhos 79 Yes - - -
Date/Time
(MST)
Sf
Temp Chem Water Layer Surface Precipitation
Sf Sub Frz Factor Pct Depth IcePct Cond Salin Type Intens Accum Rate
12/18/2014 12:30 Wet 35.8F 33F 32F 95 0% 0.20 in 0% 1 mhos 79 Yes - - -
12/18/2014 12:23 Wet 35.8F 33F 32F 95 0% 0.30 in 0% 1 mhos 79 Yes - - -
12/18/2014 12:16 Wet 35.4F 33F 32F 95 0% 0.30 in 0% 1 mhos 80 Yes - - -
12/18/2014 12:13 Wet 35.2F 33F 32F 95 0% 0.40 in 0% 1 mhos 81 Yes - - -
12/18/2014 12:03 Wet 34.7F 33F 32F 95 0% 0.30 in 0% 1 mhos 82 Yes - - -
12/18/2014 12:01 Wet 34.7F 33F 32F 95 0% 0.50 in 0% 1 mhos 82 Yes - - -
12/18/2014 11:53 Wet 34.5F 33F 32F 95 0% 0.00 in 0% 1 mhos 90 Yes - - -
12/18/2014 11:46 Wet 34.2F 33F 32F 95 0% 2.70 in 0% 1 mhos 83 None None - -
12/18/2014 11:42 Wet 34.0F 33F 32F 95 0% 9.10 in 0% 1 mhos 84 None None - -
12/18/2014 11:32 Wet 33.8F 33F 32F 95 0% 0.30 in 0% 1 mhos 86 None None - -
12/18/2014 11:30 Wet 33.8F 33F 32F 95 0% 0.30 in 0% 1 mhos 85 None None - -
12/18/2014 11:22 Wet 33.4F 33F 32F 95 0% 0.20 in 0% 1 mhos 87 Yes - - -
12/18/2014 11:16 Wet 33.8F 33F 32F 95 0% 0.40 in 0% 1 mhos 87 Yes - - -
12/18/2014 11:12 Wet 33.8F 33F 32F 95 0% 0.40 in 0% 1 mhos 88 Yes - - -
12/18/2014 11:02 Wet 33.4F 33F 32F 95 0% 1.90 in 0% 1 mhos 89 None None - -
Date/Time
(MST)
Sf
Temp Chem Water Layer Surface Precipitation
Sf Sub Frz Factor Pct Depth IcePct Cond Salin Type Intens Accum Rate
12/18/2014 11:01 Wet 33.4F 33F 32F 95 0% 1.20 in 0% 1 mhos 90 None None - -
12/18/2014 10:52 Wet 33.3F 33F 32F 95 0% 0.80 in 0% 1 mhos 90 None None - -
12/18/2014 10:46 Wet 32.9F 33F 32F 95 0% 1.50 in 0% 1 mhos 92 None None - -
12/18/2014 10:42 Wet 32.9F 33F 32F 95 0% 2.60 in 0% 1 mhos 91 None None - -
12/18/2014 10:32 Wet 32.5F 33F 32F 95 0% 0.00 in 0% 1 mhos 101 None None - -
12/18/2014 10:30 Wet 32.5F 33F 32F 95 0% 1.60 in 0% 1 mhos 93 None None - -
12/18/2014 10:22 Chemically Wet 32.0F 33F 32F 95 0% 0.00 in 0% 1 mhos 103 None None - -
12/18/2014 10:16 Chemically Wet 31.6F 33F 32F 95 0% - 67% 1 mhos 96 None None - -
12/18/2014 10:12 Chemically Wet 31.5F 33F 32F 95 0% - 78% 1 mhos 97 None None - -
12/18/2014 10:02 Ice Warning 31.3F 33F 32F 95 0% - 87% 1 mhos 99 None None - -
12/18/2014 10:00 Ice Warning 31.3F 33F 32F 95 0% - 87% 1 mhos 99 None None - -
12/18/2014 09:52 Ice Warning 30.7F 33F 32F 95 0% - 92% 1 mhos 101 None None - -
12/18/2014 09:47 Ice Warning 30.6F 33F 32F 95 0% - 93% 1 mhos 102 None None - -
12/18/2014 09:42 Ice Warning 30.6F 33F 32F 95 0% - 92% 1 mhos 103 None None - -
12/18/2014 09:32 Ice Warning 30.2F 33F 32F 95 0% - 94% 1 mhos 97 None None - -
Date/Time
(MST)
Sf
Temp Chem Water Layer Surface Precipitation
Sf Sub Frz Factor Pct Depth IcePct Cond Salin Type Intens Accum Rate
12/18/2014 09:31 Ice Warning 30.2F 33F 32F 95 0% - 95% 1 mhos 78 None None - -
12/18/2014 09:22 Ice Warning 30.2F 33F 32F 95 0% - 95% 1 mhos 85 None None - -
12/18/2014 09:16 Ice Warning 30.2F 33F 32F 95 0% - 95% 1 mhos 86 None None - -
12/18/2014 09:12 Ice Warning 30.0F 33F 32F 95 0% - 96% 1 mhos 80 None None - -
12/18/2014 09:02 Ice Warning 29.7F 33F 32F 95 0% - 96% 1 mhos 86 None None - -
12/18/2014 09:00 Ice Warning 29.7F 33F 32F 95 0% - 96% 1 mhos 86 None None - -
12/18/2014 08:52 Ice Warning 29.7F 33F 32F 95 0% - 96% 1 mhos 88 None None - -
12/18/2014 08:46 Ice Warning 29.8F 33F 32F 95 0% - 96% 1 mhos 86 None None - -
12/18/2014 08:42 Ice Warning 29.7F 33F 32F 95 0% - 96% 1 mhos 87 Yes - - -
12/18/2014 08:32 Ice Warning 29.5F 33F 32F 95 0% - 96% 1 mhos 88 None None - -
12/18/2014 08:31 Ice Warning 29.5F 33F 32F 95 0% - 96% 1 mhos 87 None None - -
12/18/2014 08:22 Ice Warning 29.5F 33F 32F 95 0% - 96% 1 mhos 88 None None - -
12/18/2014 08:16 Ice Warning 29.3F 33F 32F 95 0% - 97% 1 mhos 88 None None - -
12/18/2014 08:12 Ice Warning 29.3F 33F 32F 95 0% - 97% 1 mhos 88 None None - -
12/18/2014 08:01 Ice Warning 29.1F 33F 32F 95 0% - 97% 1 mhos 89 None None - -
Date/Time
(MST)
Sf
Temp Chem Water Layer Surface Precipitation
Sf Sub Frz Factor Pct Depth IcePct Cond Salin Type Intens Accum Rate
12/18/2014 08:00 Ice Warning 29.1F 33F 32F 95 0% - 97% 1 mhos 89 None None - -
12/18/2014 07:51 Ice Warning 29.3F 33F 32F 95 0% - 97% 1 mhos 87 Yes - - -
12/18/2014 07:46 Ice Warning 29.3F 33F 32F 95 0% - 97% 1 mhos 80 None None - -
12/18/2014 07:41 Ice Warning 29.5F 33F 32F 95 0% - 97% 1 mhos 87 Yes - - -
12/18/2014 07:31 Ice Warning 29.1F 33F 32F 95 0% - 97% 1 mhos 84 None None - -
12/18/2014 07:30 Ice Warning 29.1F 33F 32F 95 0% - 97% 1 mhos 84 None None - -
12/18/2014 07:21 Ice Warning 29.1F 33F 32F 95 0% - 97% 1 mhos 82 None None - -
12/18/2014 07:16 Ice Warning 28.9F 33F 32F 95 0% - 97% 1 mhos 81 Yes - - -
12/18/2014 07:11 Ice Warning 28.8F 33F 32F 95 0% - 98% 1 mhos 79 None None - -
12/18/2014 07:01 Ice Warning 28.6F 33F 32F 95 0% - 98% 1 mhos 77 Yes - - -
12/18/2014 07:00 Ice Warning 28.6F 33F 32F 95 0% - 98% 1 mhos 77 Yes - - -
12/18/2014 06:51 Ice Warning 28.4F 33F 32F 95 0% - 98% 1 mhos 73 Yes - - -
12/18/2014 06:46 Ice Warning 28.2F 33F 32F 95 0% - 98% 1 mhos 69 Yes - - -
12/18/2014 06:41 Ice Warning 28.0F 33F 32F 95 0% - 98% 1 mhos 66 None None - -
12/18/2014 06:31 Ice Warning 27.7F 33F 32F 95 0% - 99% 1 mhos 60 None None - -
Date/Time
(MST)
Sf
Temp Chem Water Layer Surface Precipitation
Sf Sub Frz Factor Pct Depth IcePct Cond Salin Type Intens Accum Rate
12/18/2014 06:30 Ice Warning 27.7F 33F 32F 95 0% - 99% 1 mhos 60 None None - -
12/18/2014 06:21 Ice Warning 27.1F 33F 32F 95 0% - 99% 0 mhos 53 Yes - - -
12/18/2014 06:16 Ice Warning 27.5F 33F 32F 95 0% - 99% 0 mhos 51 None None - -
12/18/2014 06:11 Ice Warning 27.3F 33F 32F 95 0% - 99% 0 mhos 53 Yes - - -
12/18/2014 06:01 Ice Warning 30.2F 33F 32F 95 0% - 98% 0 mhos 39 Yes - - -
12/18/2014 06:00 Ice Warning 30.2F 33F 32F 95 0% - 98% 0 mhos 39 Yes - - -
12/18/2014 05:51 Ice Warning 30.2F 33F 32F 95 0% - 98% 0 mhos 36 Yes - - -
12/18/2014 05:46 Ice Warning 30.2F 33F 32F 95 0% - 98% 0 mhos 36 None None - -
12/18/2014 05:41 Ice Warning 30.2F 33F 32F 95 0% - 98% 0 mhos 37 None None - -
12/18/2014 05:31 Ice Warning 30.2F 33F 32F 95 0% - 98% 0 mhos 37 None None - -
12/18/2014 05:30 Ice Warning 30.2F 33F 32F 95 0% - 98% 0 mhos 37 None None - -
12/18/2014 05:21 Ice Warning 30.2F 33F 32F 95 0% - 98% 0 mhos 37 Yes - - -
12/18/2014 05:16 Ice Warning 30.2F 33F 32F 95 0% - 98% 0 mhos 40 Yes - - -
12/18/2014 05:11 Ice Warning 30.2F 33F 32F 95 0% - 98% 0 mhos 41 Yes - - -
12/18/2014 05:01 Ice Warning 30.2F 33F 32F 95 0% - 98% 0 mhos 40 None None - -
Date/Time
(MST)
Sf
Temp Chem Water Layer Surface Precipitation
Sf Sub Frz Factor Pct Depth IcePct Cond Salin Type Intens Accum Rate
12/18/2014 05:00 Ice Warning 30.2F 33F 32F 95 0% - 98% 0 mhos 40 None None - -
12/18/2014 04:51 Ice Warning 30.2F 33F 32F 95 0% - 98% 0 mhos 41 Yes - - -
12/18/2014 04:46 Ice Warning 30.2F 33F 32F 95 0% - 98% 0 mhos 41 None None - -
12/18/2014 04:40 Ice Warning 30.2F 33F 32F 95 0% - 98% 0 mhos 41 None None - -
12/18/2014 04:30 Ice Warning 30.2F 33F 32F 95 0% - 98% 0 mhos 41 None None - -
12/18/2014 04:30 Ice Warning 30.2F 33F 32F 95 0% - 98% 0 mhos 41 None None - -
12/18/2014 04:20 Ice Warning 30.2F 34F 32F 95 0% - 98% 0 mhos 41 None None - -
12/18/2014 04:16 Ice Warning 30.2F 33F 32F 95 0% - 98% 0 mhos 39 None None - -
12/18/2014 04:10 Ice Warning 30.2F 33F 32F 95 0% - 98% 0 mhos 39 None None - -
12/18/2014 04:01 Ice Warning 30.2F 34F 32F 95 0% - 98% 0 mhos 40 None None - -
12/18/2014 04:00 Ice Warning 30.2F 34F 32F 95 0% - 98% 0 mhos 40 None None - -
12/18/2014 03:50 Ice Warning 30.2F 34F 32F 95 0% - 97% 0 mhos 44 Yes - - -
12/18/2014 03:46 Ice Warning 30.2F 34F 32F 95 0% - 97% 0 mhos 44 Yes - - -
12/18/2014 03:40 Ice Warning 30.2F 34F 32F 95 0% - 97% 0 mhos 45 Yes - - -
12/18/2014 03:30 Ice Warning 30.2F 34F 32F 95 0% - 97% 0 mhos 45 Yes - - -
Date/Time
(MST)
Sf
Temp Chem Water Layer Surface Precipitation
Sf Sub Frz Factor Pct Depth IcePct Cond Salin Type Intens Accum Rate
12/18/2014 03:30 Ice Warning 30.2F 34F 32F 95 0% - 97% 0 mhos 45 Yes - - -
12/18/2014 03:20 Ice Warning 30.2F 34F 32F 95 0% - 97% 0 mhos 49 None None - -
12/18/2014 03:17 Ice Warning 30.2F 34F 32F 95 0% - 97% 0 mhos 53 Yes - - -
12/18/2014 03:10 Ice Warning 30.2F 34F 32F 95 0% - 97% 1 mhos 57 None None - -
12/18/2014 03:00 Ice Warning 30.2F 34F 32F 95 0% - 97% 1 mhos 58 Yes - - -
12/18/2014 02:50 Ice Warning 30.2F 34F 32F 95 0% - 96% 1 mhos 59 None None - -
12/18/2014 02:40 Ice Warning 30.2F 34F 32F 95 0% - 96% 1 mhos 60 Yes - - -
12/18/2014 02:30 Ice Warning 30.2F 34F 32F 95 0% - 96% 1 mhos 61 None None - -
12/18/2014 02:20 Ice Warning 30.2F 34F 32F 95 0% - 97% 1 mhos 61 Yes - - -
12/18/2014 02:16 Ice Warning 30.2F 34F 32F 95 0% - 97% 1 mhos 62 Yes - - -
12/18/2014 02:10 Ice Warning 30.2F 34F 32F 95 0% - 97% 1 mhos 63 Yes - - -
12/18/2014 02:01 Ice Warning 30.2F 34F 32F 95 0% - 96% 1 mhos 65 Yes - - -
12/18/2014 02:00 Ice Warning 30.2F 34F 32F 95 0% - 96% 1 mhos 65 None None - -
12/18/2014 01:50 Ice Warning 30.2F 34F 32F 95 0% - 96% 1 mhos 65 Yes - - -
12/18/2014 01:40 Ice Warning 30.2F 34F 32F 95 0% - 96% 1 mhos 67 None None - -
Date/Time
(MST)
Sf
Temp Chem Water Layer Surface Precipitation
Sf Sub Frz Factor Pct Depth IcePct Cond Salin Type Intens Accum Rate
12/18/2014 01:31 Ice Warning 30.2F 34F 32F 95 0% - 96% 1 mhos 70 None None - -
12/18/2014 01:30 Ice Warning 30.2F 34F 32F 95 0% - 96% 1 mhos 70 None None - -
12/18/2014 01:20 Ice Warning 30.0F 34F 32F 95 0% - 96% 1 mhos 73 Yes - - -
12/18/2014 01:01 Ice Warning 30.0F 34F 32F 95 0% - 96% 1 mhos 80 Yes - - -
12/18/2014 00:59 Ice Warning 30.0F 34F 32F 95 0% - 96% 1 mhos 80 Yes - - -
12/18/2014 00:49 Ice Warning 29.8F 34F 32F 95 0% - 96% 1 mhos 81 Yes - - -
12/18/2014 00:46 Ice Warning 29.8F 34F 32F 95 0% - 96% 1 mhos 82 Yes - - -
12/18/2014 00:39 Ice Warning 29.8F 34F 32F 95 0% - 96% 1 mhos 88 None None - -
12/18/2014 00:30 Ice Warning 29.8F 34F 32F 95 0% - 96% 1 mhos 91 None None - -
12/18/2014 00:17 Ice Warning 29.7F 34F 32F 95 0% - 96% 1 mhos 100 Yes - - -
12/18/2014 00:01 Ice Warning 29.5F 34F 32F 95 0% - 95% 1 mhos 128 Yes - - -
12/17/2014 23:59 Ice Warning 29.5F 34F 32F 95 1% - 95% 1 mhos 132 Yes - - -
12/17/2014 23:49 Ice Warning 30.0F 34F 32F 95 1% - 93% 1 mhos 139 None None - -
12/17/2014 23:47 Ice Warning 30.0F 34F 32F 95 1% - 93% 1 mhos 139 None None - -
12/17/2014 23:39 Ice Warning 29.8F 34F 32F 95 1% - 94% 1 mhos 137 None None - -
Date/Time
(MST)
Sf
Temp Chem Water Layer Surface Precipitation
Sf Sub Frz Factor Pct Depth IcePct Cond Salin Type Intens Accum Rate
12/17/2014 23:31 Ice Warning 30.0F 34F 32F 95 1% - 93% 1 mhos 134 None None - -
12/17/2014 23:29 Ice Warning 30.0F 34F 32F 95 1% - 93% 1 mhos 132 None None - -
12/17/2014 23:19 Ice Warning 30.0F 34F 32F 95 0% - 93% 1 mhos 130 None None - -
12/17/2014 23:16 Ice Warning 30.0F 34F 32F 95 1% - 93% 1 mhos 131 Yes - - -
12/17/2014 23:09 Ice Warning 30.2F 34F 32F 95 0% - 93% 1 mhos 128 Yes - - -
12/17/2014 23:02 Ice Warning 30.0F 34F 32F 95 1% - 93% 1 mhos 130 None None - -
12/17/2014 22:59 Ice Warning 30.0F 34F 32F 95 0% - 93% 1 mhos 129 None None - -
12/17/2014 22:49 Ice Warning 30.2F 34F 32F 95 0% - 93% 1 mhos 129 Yes - - -
12/17/2014 22:39 Ice Warning 30.0F 34F 32F 95 1% - 93% 1 mhos 131 None None - -
12/17/2014 22:31 Ice Warning 30.0F 34F 32F 95 1% - 93% 1 mhos 130 None None - -
12/17/2014 22:29 Ice Warning 30.0F 34F 32F 95 0% - 93% 1 mhos 129 None None - -
12/17/2014 22:19 Ice Warning 30.0F 34F 32F 95 0% - 94% 1 mhos 129 None None - -
12/17/2014 22:16 Ice Warning 30.0F 34F 32F 95 0% - 94% 1 mhos 129 None None - -
12/17/2014 22:01 Ice Warning 30.0F 34F 32F 95 0% - 94% 1 mhos 128 None None - -
12/17/2014 21:59 Ice Warning 30.0F 34F 32F 95 0% - 94% 1 mhos 128 None None - -
Date/Time
(MST)
Sf
Temp Chem Water Layer Surface Precipitation
Sf Sub Frz Factor Pct Depth IcePct Cond Salin Type Intens Accum Rate
12/17/2014 21:49 Ice Warning 29.8F 34F 32F 95 1% - 94% 1 mhos 131 None None - -
12/17/2014 21:38 Ice Warning 29.8F 34F 32F 95 0% - 94% 1 mhos 128 None None - -
12/17/2014 21:31 Ice Warning 29.8F 34F 32F 95 0% - 94% 1 mhos 130 None None - -
12/17/2014 21:28 Ice Warning 29.8F 34F 32F 95 0% - 94% 1 mhos 130 None None - -
12/17/2014 21:18 Ice Warning 29.7F 34F 32F 95 1% - 94% 1 mhos 130 None None - -
12/17/2014 21:16 Ice Warning 29.7F 34F 32F 95 0% - 94% 1 mhos 130 None None - -
12/17/2014 20:58 Ice Warning 29.3F 34F 32F 95 1% - 95% 1 mhos 132 None None - -
12/17/2014 20:48 Ice Warning 29.1F 34F 32F 95 1% - 95% 1 mhos 131 None None - -
12/17/2014 20:38 Ice Warning 29.1F 34F 32F 95 0% - 95% 1 mhos 130 None None - -
12/17/2014 20:28 Ice Warning 29.1F 34F 32F 95 1% - 96% 1 mhos 130 None None - -
12/17/2014 20:18 Ice Warning 28.9F 34F 32F 95 1% - 96% 1 mhos 130 None None - -
12/17/2014 20:16 Ice Warning 28.9F 34F 32F 95 0% - 96% 1 mhos 127 None None - -
12/17/2014 20:08 Ice Warning 28.8F 34F 32F 95 1% - 96% 1 mhos 130 None None - -
12/17/2014 19:58 Ice Warning 28.9F 34F 32F 95 1% - 96% 1 mhos 131 None None - -
12/17/2014 19:46 Ice Warning 28.8F 34F 32F 95 1% - 96% 1 mhos 131 None None - -
Date/Time
(MST)
Sf
Temp Chem Water Layer Surface Precipitation
Sf Sub Frz Factor Pct Depth IcePct Cond Salin Type Intens Accum Rate
12/17/2014 19:38 Ice Warning 28.9F 34F 32F 95 1% - 96% 1 mhos 132 None None - -
12/17/2014 19:31 Ice Warning 29.1F 34F 32F 95 1% - 96% 1 mhos 131 None None - -
12/17/2014 19:28 Ice Warning 29.1F 34F 32F 95 1% - 95% 1 mhos 131 None None - -
12/17/2014 19:18 Ice Warning 29.3F 34F 32F 95 0% - 95% 1 mhos 130 None None - -
12/17/2014 19:16 Ice Warning 29.3F 34F 32F 95 1% - 95% 1 mhos 132 None None - -
12/17/2014 19:08 Ice Warning 29.1F 34F 32F 95 1% - 96% 1 mhos 132 None None - -
12/17/2014 19:01 Ice Warning 29.1F 34F 32F 95 1% - 96% 1 mhos 130 None None - -
12/17/2014 18:58 Ice Warning 29.1F 34F 32F 95 1% - 95% 1 mhos 133 None None - -
12/17/2014 18:48 Ice Warning 29.5F 34F 32F 95 0% - 95% 1 mhos 130 None None - -
12/17/2014 18:47 Ice Warning 29.5F 34F 32F 95 0% - 95% 1 mhos 129 None None - -
12/17/2014 18:38 Ice Warning 29.3F 34F 32F 95 0% - 95% 1 mhos 129 None None - -
Change End Date:
Copyright © 1998-2005 Surface Systems, Inc.
All Rights Reserved
Send comments about the data to:
SCAN Web ® is a registered trademark of Surface Systems, Inc.
SCAN Web Version 5.6